Location: Boiro
(42.6475°N, 8.8834°W)
Time: 06:56:19
(UTC+01:00)

Envisat - Pass Details

Date: 28 October 2021
Orbit: 764 x 766 km, 98.2° (Epoch: 04 December)

Event Time Altitude Azimuth Distance (km) Brightness Sun altitude
Rises 07:09:46 0° 20° (NNE) 3,241 6.5 -21.6°
Reaches altitude 10° 07:12:12 10° 27° (NNE) 2,310 5.8 -21.2°
Maximum altitude 07:17:01 42° 98° (E) 1,090 4.3 -20.3°
Drops below altitude 10° 07:21:47 10° 169° (SSE) 2,293 5.6 -19.4°
Sets 07:24:12 0° 176° (S) 3,214 6.3 -19.0°
